date,time,SUV Intensity [MED/Hr],UV Index,Daily total [MED],Since Last [MED]
22/09/2022,00:00:55,0.000,0.0,0.0,0.0
22/09/2022,00:01:55,0.000,0.0,0.0,0.0
22/09/2022,00:02:55,0.000,0.0,0.0,0.0
22/09/2022,00:03:55,0.000,0.0,0.0,0.0
22/09/2022,00:04:55,-0.000,0.0,0.0,0.0
22/09/2022,00:05:55,-0.001,0.0,0.0,0.0
22/09/2022,00:06:55,0.001,0.0,0.0,0.0
22/09/2022,00:08:03,0.000,0.0,0.0,0.0
22/09/2022,00:09:03,0.000,0.0,0.0,0.0
22/09/2022,00:09:55,0.000,0.0,0.0,0.0
22/09/2022,00:10:55,0.000,0.0,0.0,0.0
22/09/2022,00:12:12,0.000,0.0,0.0,0.0
22/09/2022,00:13:56,0.001,0.0,0.0,0.0
22/09/2022,00:14:55,-0.001,0.0,0.0,0.0
22/09/2022,00:15:55,-0.001,0.0,0.0,0.0
22/09/2022,00:16:55,0.000,0.0,0.0,0.0
22/09/2022,00:18:03,0.001,0.0,0.0,0.0
22/09/2022,00:18:55,-0.000,0.0,0.0,0.0
22/09/2022,00:19:55,-0.000,0.0,0.0,0.0
22/09/2022,00:20:55,-0.001,0.0,0.0,0.0
22/09/2022,00:22:03,-0.001,0.0,0.0,0.0
22/09/2022,00:22:54,0.000,0.0,0.0,0.0
22/09/2022,00:23:56,0.000,0.0,0.0,0.0
22/09/2022,00:24:55,0.001,0.0,0.0,0.0
22/09/2022,00:25:55,0.000,0.0,0.0,0.0
22/09/2022,00:26:55,0.000,0.0,0.0,0.0
22/09/2022,00:27:55,0.001,0.0,0.0,0.0
22/09/2022,00:28:55,0.000,0.0,0.0,0.0
22/09/2022,00:29:55,0.000,0.0,0.0,0.0
22/09/2022,00:31:03,-0.001,0.0,0.0,0.0
22/09/2022,00:31:55,0.001,0.0,0.0,0.0
22/09/2022,00:32:55,0.000,0.0,0.0,0.0
22/09/2022,00:33:55,0.000,0.0,0.0,0.0
22/09/2022,00:34:55,-0.001,0.0,0.0,0.0
22/09/2022,00:35:55,-0.001,0.0,0.0,0.0
22/09/2022,00:36:55,0.000,0.0,0.0,0.0
22/09/2022,00:37:55,0.000,0.0,0.0,0.0
22/09/2022,00:38:55,0.001,0.0,0.0,0.0
22/09/2022,00:39:55,-0.001,0.0,0.0,0.0
22/09/2022,00:41:12,0.001,0.0,0.0,0.0
22/09/2022,00:42:56,0.001,0.0,0.0,0.0
22/09/2022,00:43:55,0.000,0.0,0.0,0.0
22/09/2022,00:44:56,0.001,0.0,0.0,0.0
22/09/2022,00:45:55,-0.001,0.0,0.0,0.0
22/09/2022,00:47:07,0.000,0.0,0.0,0.0
22/09/2022,00:48:56,0.001,0.0,0.0,0.0
22/09/2022,00:49:57,0.000,0.0,0.0,0.0
22/09/2022,00:51:04,0.000,0.0,0.0,0.0
22/09/2022,00:51:55,0.001,0.0,0.0,0.0
22/09/2022,00:52:55,0.000,0.0,0.0,0.0
22/09/2022,00:54:03,0.001,0.0,0.0,0.0
22/09/2022,00:54:55,0.001,0.0,0.0,0.0
22/09/2022,00:55:55,0.001,0.0,0.0,0.0
22/09/2022,00:57:03,-0.000,0.0,0.0,0.0
22/09/2022,00:57:55,0.000,0.0,0.0,0.0
22/09/2022,00:58:55,0.000,0.0,0.0,0.0
22/09/2022,00:59:55,0.000,0.0,0.0,0.0
22/09/2022,01:00:55,0.000,0.0,0.0,0.0
22/09/2022,01:01:55,0.000,0.0,0.0,0.0
22/09/2022,01:02:55,0.000,0.0,0.0,0.0
22/09/2022,01:03:55,0.000,0.0,0.0,0.0
22/09/2022,01:04:55,0.000,0.0,0.0,0.0
22/09/2022,01:05:55,-0.000,0.0,0.0,0.0
22/09/2022,01:07:03,-0.001,0.0,0.0,0.0
22/09/2022,01:07:55,0.001,0.0,0.0,0.0
22/09/2022,01:08:55,0.000,0.0,0.0,0.0
22/09/2022,01:09:55,0.001,0.0,0.0,0.0
22/09/2022,01:10:55,0.000,0.0,0.0,0.0
22/09/2022,01:11:55,0.000,0.0,0.0,0.0
22/09/2022,01:12:55,0.000,0.0,0.0,0.0
22/09/2022,01:13:55,0.001,0.0,0.0,0.0
22/09/2022,01:14:55,0.000,0.0,0.0,0.0
22/09/2022,01:15:55,0.000,0.0,0.0,0.0
22/09/2022,01:16:55,0.000,0.0,0.0,0.0
22/09/2022,01:17:55,0.001,0.0,0.0,0.0
22/09/2022,01:18:55,0.000,0.0,0.0,0.0
22/09/2022,01:19:55,0.000,0.0,0.0,0.0
22/09/2022,01:20:55,0.001,0.0,0.0,0.0
22/09/2022,01:21:55,0.000,0.0,0.0,0.0
22/09/2022,01:22:56,0.000,0.0,0.0,0.0
22/09/2022,01:24:03,0.001,0.0,0.0,0.0
22/09/2022,01:24:55,0.001,0.0,0.0,0.0
22/09/2022,01:26:03,0.001,0.0,0.0,0.0
22/09/2022,01:27:12,0.001,0.0,0.0,0.0
22/09/2022,01:28:56,0.000,0.0,0.0,0.0
22/09/2022,01:29:55,0.000,0.0,0.0,0.0
22/09/2022,01:30:55,0.000,0.0,0.0,0.0
22/09/2022,01:31:55,0.000,0.0,0.0,0.0
22/09/2022,01:32:55,0.000,0.0,0.0,0.0
22/09/2022,01:33:55,-0.000,0.0,0.0,0.0
22/09/2022,01:34:55,0.000,0.0,0.0,0.0
22/09/2022,01:35:55,0.001,0.0,0.0,0.0
22/09/2022,01:36:55,0.001,0.0,0.0,0.0
22/09/2022,01:37:55,0.000,0.0,0.0,0.0
22/09/2022,01:39:03,-0.000,0.0,0.0,0.0
22/09/2022,01:39:55,0.000,0.0,0.0,0.0
22/09/2022,01:40:56,-0.001,0.0,0.0,0.0
22/09/2022,01:41:55,0.001,0.0,0.0,0.0
22/09/2022,01:42:55,0.000,0.0,0.0,0.0
22/09/2022,01:43:55,0.000,0.0,0.0,0.0
22/09/2022,01:44:55,0.001,0.0,0.0,0.0
22/09/2022,01:45:55,0.000,0.0,0.0,0.0
22/09/2022,01:46:55,0.001,0.0,0.0,0.0
22/09/2022,01:47:55,0.002,0.0,0.0,0.0
22/09/2022,01:49:04,0.000,0.0,0.0,0.0
22/09/2022,01:49:55,0.001,0.0,0.0,0.0
22/09/2022,01:50:55,0.001,0.0,0.0,0.0
22/09/2022,01:51:55,0.001,0.0,0.0,0.0
22/09/2022,01:52:55,0.000,0.0,0.0,0.0
22/09/2022,01:53:55,0.000,0.0,0.0,0.0
22/09/2022,01:54:55,0.000,0.0,0.0,0.0
22/09/2022,01:55:55,0.000,0.0,0.0,0.0
22/09/2022,01:56:55,0.001,0.0,0.0,0.0
22/09/2022,01:57:55,0.000,0.0,0.0,0.0
22/09/2022,01:58:55,-0.001,0.0,0.0,0.0
22/09/2022,01:59:55,0.000,0.0,0.0,0.0
22/09/2022,02:00:55,0.001,0.0,0.0,0.0
22/09/2022,02:01:55,0.001,0.0,0.0,0.0
22/09/2022,02:02:55,0.000,0.0,0.0,0.0
22/09/2022,02:03:55,-0.000,0.0,0.0,0.0
22/09/2022,02:04:55,0.000,0.0,0.0,0.0
22/09/2022,02:05:55,-0.000,0.0,0.0,0.0
22/09/2022,02:06:55,0.000,0.0,0.0,0.0
22/09/2022,02:07:55,0.002,0.0,0.0,0.0
22/09/2022,02:08:55,0.000,0.0,0.0,0.0
22/09/2022,02:09:55,-0.001,0.0,0.0,0.0
22/09/2022,02:10:55,0.000,0.0,0.0,0.0
22/09/2022,02:11:56,0.000,0.0,0.0,0.0
22/09/2022,02:12:55,0.001,0.0,0.0,0.0
22/09/2022,02:13:55,-0.000,0.0,0.0,0.0
22/09/2022,02:15:03,0.001,0.0,0.0,0.0
22/09/2022,02:16:03,0.000,0.0,0.0,0.0
22/09/2022,02:16:55,0.000,0.0,0.0,0.0
22/09/2022,02:17:46,-0.000,0.0,0.0,0.0
22/09/2022,02:18:56,0.000,0.0,0.0,0.0
22/09/2022,02:19:55,0.001,0.0,0.0,0.0
22/09/2022,02:20:55,0.001,0.0,0.0,0.0
22/09/2022,02:22:03,0.001,0.0,0.0,0.0
22/09/2022,02:22:55,0.001,0.0,0.0,0.0
22/09/2022,02:23:55,0.001,0.0,0.0,0.0
22/09/2022,02:24:55,0.002,0.0,0.0,0.0
22/09/2022,02:25:55,0.000,0.0,0.0,0.0
22/09/2022,02:26:55,0.001,0.0,0.0,0.0
22/09/2022,02:27:56,-0.000,0.0,0.0,0.0
22/09/2022,02:28:55,0.001,0.0,0.0,0.0
22/09/2022,02:29:55,0.001,0.0,0.0,0.0
22/09/2022,02:30:55,0.000,0.0,0.0,0.0
22/09/2022,02:32:03,0.000,0.0,0.0,0.0
22/09/2022,02:32:56,0.000,0.0,0.0,0.0
22/09/2022,02:33:55,0.002,0.0,0.0,0.0
22/09/2022,02:35:04,0.000,0.0,0.0,0.0
22/09/2022,02:35:55,0.001,0.0,0.0,0.0
22/09/2022,02:36:56,0.002,0.0,0.0,0.0
22/09/2022,02:38:03,0.000,0.0,0.0,0.0
22/09/2022,02:38:57,0.000,0.0,0.0,0.0
22/09/2022,02:40:02,-0.000,0.0,0.0,0.0
22/09/2022,02:40:56,0.000,0.0,0.0,0.0
22/09/2022,02:42:12,0.000,0.0,0.0,0.0
22/09/2022,02:43:55,0.001,0.0,0.0,0.0
22/09/2022,02:44:55,0.001,0.0,0.0,0.0
22/09/2022,02:45:55,-0.000,0.0,0.0,0.0
22/09/2022,02:46:55,0.000,0.0,0.0,0.0
22/09/2022,02:48:03,0.000,0.0,0.0,0.0
22/09/2022,02:48:55,0.001,0.0,0.0,0.0
22/09/2022,02:49:55,0.001,0.0,0.0,0.0
22/09/2022,02:50:55,0.000,0.0,0.0,0.0
22/09/2022,02:51:55,0.001,0.0,0.0,0.0
22/09/2022,02:52:55,0.000,0.0,0.0,0.0
22/09/2022,02:53:57,0.000,0.0,0.0,0.0
22/09/2022,02:54:55,0.000,0.0,0.0,0.0
22/09/2022,02:55:56,0.002,0.0,0.0,0.0
22/09/2022,02:56:55,0.000,0.0,0.0,0.0
22/09/2022,02:58:04,-0.000,0.0,0.0,0.0
22/09/2022,02:58:55,-0.000,0.0,0.0,0.0
22/09/2022,02:59:55,0.000,0.0,0.0,0.0
22/09/2022,03:01:03,0.000,0.0,0.0,0.0
22/09/2022,03:01:55,-0.000,0.0,0.0,0.0
22/09/2022,03:02:56,0.000,0.0,0.0,0.0
22/09/2022,03:03:55,0.000,0.0,0.0,0.0
22/09/2022,03:04:55,0.001,0.0,0.0,0.0
22/09/2022,03:05:56,0.001,0.0,0.0,0.0
22/09/2022,03:06:56,0.001,0.0,0.0,0.0
22/09/2022,03:07:55,-0.000,0.0,0.0,0.0
22/09/2022,03:08:55,-0.001,0.0,0.0,0.0
22/09/2022,03:09:55,-0.000,0.0,0.0,0.0
22/09/2022,03:10:55,0.000,0.0,0.0,0.0
22/09/2022,03:11:55,0.001,0.0,0.0,0.0
22/09/2022,03:12:55,0.000,0.0,0.0,0.0
22/09/2022,03:14:03,0.001,0.0,0.0,0.0
22/09/2022,03:14:55,0.001,0.0,0.0,0.0
22/09/2022,03:15:56,0.000,0.0,0.0,0.0
22/09/2022,03:16:55,0.001,0.0,0.0,0.0
22/09/2022,03:17:56,0.001,0.0,0.0,0.0
22/09/2022,03:18:55,-0.000,0.0,0.0,0.0
22/09/2022,03:19:55,0.001,0.0,0.0,0.0
22/09/2022,03:20:55,0.001,0.0,0.0,0.0
22/09/2022,03:21:55,0.001,0.0,0.0,0.0
22/09/2022,03:22:56,0.001,0.0,0.0,0.0
22/09/2022,03:24:04,0.000,0.0,0.0,0.0
22/09/2022,03:25:08,0.000,0.0,0.0,0.0
22/09/2022,03:26:56,0.001,0.0,0.0,0.0
22/09/2022,03:27:55,0.001,0.0,0.0,0.0
22/09/2022,03:28:55,0.001,0.0,0.0,0.0
22/09/2022,03:29:55,0.001,0.0,0.0,0.0
22/09/2022,03:30:56,0.001,0.0,0.0,0.0
22/09/2022,03:31:55,0.001,0.0,0.0,0.0
22/09/2022,03:32:56,0.000,0.0,0.0,0.0
22/09/2022,03:34:03,0.000,0.0,0.0,0.0
22/09/2022,03:34:46,0.000,0.0,0.0,0.0
22/09/2022,03:35:56,0.001,0.0,0.0,0.0
22/09/2022,03:36:56,0.001,0.0,0.0,0.0
22/09/2022,03:37:55,0.001,0.0,0.0,0.0
22/09/2022,03:38:56,0.001,0.0,0.0,0.0
22/09/2022,03:39:55,-0.000,0.0,0.0,0.0
22/09/2022,03:40:55,0.001,0.0,0.0,0.0
22/09/2022,03:41:55,0.001,0.0,0.0,0.0
22/09/2022,03:42:55,0.000,0.0,0.0,0.0
22/09/2022,03:43:55,0.000,0.0,0.0,0.0
22/09/2022,03:44:56,0.001,0.0,0.0,0.0
22/09/2022,03:45:55,0.001,0.0,0.0,0.0
22/09/2022,03:46:56,0.000,0.0,0.0,0.0
22/09/2022,03:48:04,0.001,0.0,0.0,0.0
22/09/2022,03:48:55,0.001,0.0,0.0,0.0
22/09/2022,03:50:12,0.001,0.0,0.0,0.0
22/09/2022,03:52:05,0.001,0.0,0.0,0.0
22/09/2022,03:52:54,0.001,0.0,0.0,0.0
22/09/2022,03:53:55,0.001,0.0,0.0,0.0
22/09/2022,03:54:56,0.001,0.0,0.0,0.0
22/09/2022,03:55:56,0.001,0.0,0.0,0.0
22/09/2022,03:56:56,0.000,0.0,0.0,0.0
22/09/2022,03:57:55,0.001,0.0,0.0,0.0
22/09/2022,03:58:55,0.001,0.0,0.0,0.0
22/09/2022,03:59:56,0.001,0.0,0.0,0.0
22/09/2022,04:00:55,0.001,0.0,0.0,0.0
22/09/2022,04:01:55,0.001,0.0,0.0,0.0
22/09/2022,04:02:56,0.001,0.0,0.0,0.0
22/09/2022,04:03:56,0.000,0.0,0.0,0.0
22/09/2022,04:04:55,0.001,0.0,0.0,0.0
22/09/2022,04:05:56,0.001,0.0,0.0,0.0
22/09/2022,04:06:55,0.001,0.0,0.0,0.0
22/09/2022,04:08:03,0.000,0.0,0.0,0.0
22/09/2022,04:08:55,0.001,0.0,0.0,0.0
22/09/2022,04:09:56,0.001,0.0,0.0,0.0
22/09/2022,04:10:56,0.001,0.0,0.0,0.0
22/09/2022,04:12:04,0.001,0.0,0.0,0.0
22/09/2022,04:12:55,0.001,0.0,0.0,0.0
22/09/2022,04:13:55,0.001,0.0,0.0,0.0
22/09/2022,04:14:55,0.002,0.0,0.0,0.0
22/09/2022,04:15:56,0.001,0.0,0.0,0.0
22/09/2022,04:16:55,0.001,0.0,0.0,0.0
22/09/2022,04:17:55,0.001,0.0,0.0,0.0
22/09/2022,04:18:56,0.002,0.0,0.0,0.0
22/09/2022,04:19:55,0.001,0.0,0.0,0.0
22/09/2022,04:21:03,0.001,0.0,0.0,0.0
22/09/2022,04:21:55,0.001,0.0,0.0,0.0
22/09/2022,04:22:56,0.002,0.0,0.0,0.0
22/09/2022,04:23:55,0.001,0.0,0.0,0.0
22/09/2022,04:24:55,0.000,0.0,0.0,0.0
22/09/2022,04:25:56,0.001,0.0,0.0,0.0
22/09/2022,04:26:55,0.001,0.0,0.0,0.0
22/09/2022,04:27:56,0.001,0.0,0.0,0.0
22/09/2022,04:28:55,0.001,0.0,0.0,0.0
22/09/2022,04:29:55,0.001,0.0,0.0,0.0
22/09/2022,04:31:04,0.001,0.0,0.0,0.0
22/09/2022,04:31:55,0.000,0.0,0.0,0.0
22/09/2022,04:32:56,0.001,0.0,0.0,0.0
22/09/2022,04:33:55,0.001,0.0,0.0,0.0
22/09/2022,04:34:56,0.001,0.0,0.0,0.0
22/09/2022,04:35:55,0.001,0.0,0.0,0.0
22/09/2022,04:36:55,0.002,0.0,0.0,0.0
22/09/2022,04:37:56,0.001,0.0,0.0,0.0
22/09/2022,04:38:56,0.001,0.0,0.0,0.0
22/09/2022,04:39:55,0.001,0.0,0.0,0.0
22/09/2022,04:41:04,-0.000,0.0,0.0,0.0
22/09/2022,04:41:55,0.001,0.0,0.0,0.0
22/09/2022,04:42:55,0.000,0.0,0.0,0.0
22/09/2022,04:43:55,-0.000,0.0,0.0,0.0
22/09/2022,04:44:55,0.001,0.0,0.0,0.0
22/09/2022,04:45:56,0.001,0.0,0.0,0.0
22/09/2022,04:46:55,0.001,0.0,0.0,0.0
22/09/2022,04:47:55,0.001,0.0,0.0,0.0
22/09/2022,04:48:56,0.001,0.0,0.0,0.0
22/09/2022,04:49:55,0.000,0.0,0.0,0.0
22/09/2022,04:51:03,0.001,0.0,0.0,0.0
22/09/2022,04:51:56,0.001,0.0,0.0,0.0
22/09/2022,04:52:56,0.001,0.0,0.0,0.0
22/09/2022,04:53:55,0.001,0.0,0.0,0.0
22/09/2022,04:54:55,0.001,0.0,0.0,0.0
22/09/2022,04:55:56,0.000,0.0,0.0,0.0
22/09/2022,04:56:55,0.002,0.0,0.0,0.0
22/09/2022,04:58:03,0.001,0.0,0.0,0.0
22/09/2022,04:58:55,0.001,0.0,0.0,0.0
22/09/2022,04:59:55,0.001,0.0,0.0,0.0
22/09/2022,05:00:55,0.001,0.0,0.0,0.0
22/09/2022,05:01:55,0.001,0.0,0.0,0.0
22/09/2022,05:02:56,0.001,0.0,0.0,0.0
22/09/2022,05:03:56,0.001,0.0,0.0,0.0
22/09/2022,05:04:56,0.001,0.0,0.0,0.0
22/09/2022,05:05:56,0.000,0.0,0.0,0.0
22/09/2022,05:06:56,0.001,0.0,0.0,0.0
22/09/2022,05:08:04,0.001,0.0,0.0,0.0
22/09/2022,05:08:55,0.001,0.0,0.0,0.0
22/09/2022,05:09:55,0.001,0.0,0.0,0.0
22/09/2022,05:10:55,0.002,0.0,0.0,0.0
22/09/2022,05:11:55,0.001,0.0,0.0,0.0
22/09/2022,05:12:56,0.001,0.0,0.0,0.0
22/09/2022,05:13:55,0.001,0.0,0.0,0.0
22/09/2022,05:14:55,0.002,0.0,0.0,0.0
22/09/2022,05:15:55,0.001,0.0,0.0,0.0
22/09/2022,05:16:55,-0.000,0.0,0.0,0.0
22/09/2022,05:18:04,0.001,0.0,0.0,0.0
22/09/2022,05:18:55,0.001,0.0,0.0,0.0
22/09/2022,05:19:55,0.001,0.0,0.0,0.0
22/09/2022,05:21:03,0.001,0.0,0.0,0.0
22/09/2022,05:21:56,0.001,0.0,0.0,0.0
22/09/2022,05:22:56,0.001,0.0,0.0,0.0
22/09/2022,05:23:55,0.001,0.0,0.0,0.0
22/09/2022,05:24:55,0.001,0.0,0.0,0.0
22/09/2022,05:25:56,0.001,0.0,0.0,0.0
22/09/2022,05:26:56,-0.000,0.0,0.0,0.0
22/09/2022,05:28:04,0.001,0.0,0.0,0.0
22/09/2022,05:28:56,0.001,0.0,0.0,0.0
22/09/2022,05:29:56,0.001,0.0,0.0,0.0
22/09/2022,05:30:56,0.001,0.0,0.0,0.0
22/09/2022,05:32:04,0.000,0.0,0.0,0.0
22/09/2022,05:32:43,0.001,0.0,0.0,0.0
22/09/2022,05:33:57,0.001,0.0,0.0,0.0
22/09/2022,05:34:55,0.002,0.0,0.0,0.0
22/09/2022,05:35:56,0.002,0.0,0.0,0.0
22/09/2022,05:36:56,0.002,0.0,0.0,0.0
22/09/2022,05:38:04,0.001,0.0,0.0,0.0
22/09/2022,05:39:04,0.001,0.0,0.0,0.0
22/09/2022,05:40:04,0.002,0.0,0.0,0.0
22/09/2022,05:40:56,0.002,0.0,0.0,0.0
22/09/2022,05:41:56,0.002,0.0,0.0,0.0
22/09/2022,05:42:55,0.002,0.0,0.0,0.0
22/09/2022,05:43:55,0.002,0.0,0.0,0.0
22/09/2022,05:44:56,0.001,0.0,0.0,0.0
22/09/2022,05:45:56,0.002,0.0,0.0,0.0
22/09/2022,05:46:56,0.002,0.0,0.0,0.0
22/09/2022,05:47:55,0.002,0.0,0.0,0.0
22/09/2022,05:48:55,0.002,0.0,0.0,0.0
22/09/2022,05:49:56,0.003,0.0,0.0,0.0
22/09/2022,05:50:55,0.003,0.0,0.0,0.0
22/09/2022,05:51:55,0.003,0.0,0.0,0.0
22/09/2022,05:52:56,0.003,0.0,0.0,0.0
22/09/2022,05:53:56,0.005,0.0,0.0,0.0
22/09/2022,05:54:55,0.004,0.0,0.0,0.0
22/09/2022,05:55:55,0.004,0.0,0.0,0.0
22/09/2022,05:56:56,0.003,0.0,0.0,0.0
22/09/2022,05:57:55,0.005,0.0,0.0,0.0
22/09/2022,05:58:56,0.005,0.0,0.0,0.0
22/09/2022,05:59:55,0.005,0.0,0.0,0.0
22/09/2022,06:00:56,0.005,0.0,0.0,0.0
22/09/2022,06:02:04,0.006,0.0,0.0,0.0
22/09/2022,06:02:56,0.007,0.0,0.0,0.0
22/09/2022,06:03:55,0.006,0.0,0.0,0.0
22/09/2022,06:05:04,0.007,0.0,0.0,0.0
22/09/2022,06:05:55,0.007,0.0,0.0,0.0
22/09/2022,06:06:55,0.007,0.0,0.001,0.001
22/09/2022,06:07:56,0.008,0.0,0.001,0.0
22/09/2022,06:08:56,0.009,0.0,0.001,0.0
22/09/2022,06:09:55,0.009,0.0,0.001,0.0
22/09/2022,06:10:56,0.009,0.0,0.001,0.0
22/09/2022,06:12:04,0.010,0.0,0.001,0.0
22/09/2022,06:12:55,0.010,0.0,0.001,0.0
22/09/2022,06:13:55,0.010,0.0,0.002,0.001
22/09/2022,06:14:56,0.011,0.0,0.002,0.0
22/09/2022,06:15:55,0.012,0.0,0.002,0.0
22/09/2022,06:16:55,0.011,0.0,0.002,0.0
22/09/2022,06:17:56,0.012,0.0,0.002,0.0
22/09/2022,06:18:56,0.012,0.0,0.003,0.001
22/09/2022,06:19:56,0.014,0.0,0.003,0.0
22/09/2022,06:20:55,0.014,0.0,0.003,0.0
22/09/2022,06:22:04,0.015,0.0,0.003,0.0
22/09/2022,06:22:56,0.015,0.0,0.003,0.0
22/09/2022,06:23:55,0.016,0.0,0.004,0.001
22/09/2022,06:24:56,0.017,0.0,0.004,0.0
22/09/2022,06:25:55,0.017,0.0,0.004,0.0
22/09/2022,06:26:55,0.018,0.0,0.005,0.001
22/09/2022,06:27:56,0.019,0.0,0.005,0.0
22/09/2022,06:28:56,0.019,0.0,0.005,0.0
22/09/2022,06:29:56,0.021,0.0,0.006,0.001
22/09/2022,06:30:55,0.021,0.0,0.006,0.0
22/09/2022,06:31:56,0.022,0.0,0.006,0.0
22/09/2022,06:32:55,0.023,0.0,0.007,0.001
22/09/2022,06:33:56,0.023,0.0,0.007,0.0
22/09/2022,06:34:55,0.025,0.0,0.007,0.0
22/09/2022,06:35:55,0.025,0.0,0.008,0.001
22/09/2022,06:36:56,0.026,0.0,0.008,0.0
22/09/2022,06:37:56,0.028,0.0,0.009,0.001
22/09/2022,06:38:55,0.028,0.0,0.009,0.0
22/09/2022,06:40:04,0.030,0.0,0.01,0.001
22/09/2022,06:40:56,0.030,0.0,0.01,0.0
22/09/2022,06:41:55,0.032,0.0,0.011,0.001
22/09/2022,06:42:56,0.033,0.0,0.011,0.0
22/09/2022,06:43:56,0.034,0.0,0.012,0.001
22/09/2022,06:44:55,0.035,0.0,0.012,0.0
22/09/2022,06:45:55,0.036,0.0,0.013,0.001
22/09/2022,06:46:55,0.037,0.0,0.014,0.001
22/09/2022,06:47:55,0.039,0.0,0.014,0.0
22/09/2022,06:48:56,0.039,0.0,0.015,0.001
22/09/2022,06:50:04,0.041,0.0,0.016,0.001
22/09/2022,06:50:56,0.043,0.0,0.016,0.0
22/09/2022,06:51:56,0.043,0.0,0.017,0.001
22/09/2022,06:52:55,0.044,0.0,0.018,0.001
22/09/2022,06:53:55,0.046,0.0,0.018,0.0
22/09/2022,06:54:56,0.048,0.0,0.019,0.001
22/09/2022,06:55:56,0.048,0.0,0.02,0.001
22/09/2022,06:56:55,0.049,0.0,0.021,0.001
22/09/2022,06:57:57,0.051,0.0,0.022,0.001
22/09/2022,06:58:56,0.052,0.0,0.022,0.0
22/09/2022,07:00:04,0.055,0.0,0.023,0.001
22/09/2022,07:00:56,0.056,0.0,0.024,0.001
22/09/2022,07:01:56,0.057,0.0,0.025,0.001
22/09/2022,07:03:04,0.059,0.0,0.026,0.001
22/09/2022,07:03:55,0.059,0.0,0.027,0.001
22/09/2022,07:04:56,0.062,0.0,0.028,0.001
22/09/2022,07:05:55,0.063,0.0,0.029,0.001
22/09/2022,07:06:55,0.065,0.0,0.03,0.001
22/09/2022,07:07:56,0.066,0.0,0.031,0.001
22/09/2022,07:08:55,0.068,0.0,0.032,0.001
22/09/2022,07:09:56,0.070,0.0,0.034,0.002
22/09/2022,07:10:55,0.071,0.0,0.035,0.001
22/09/2022,07:11:56,0.072,0.0,0.036,0.001
22/09/2022,07:13:04,0.075,0.0,0.037,0.001
22/09/2022,07:13:56,0.077,0.0,0.038,0.001
22/09/2022,07:14:55,0.078,0.0,0.04,0.002
22/09/2022,07:15:56,0.079,0.0,0.041,0.001
22/09/2022,07:16:56,0.082,0.0,0.042,0.001
22/09/2022,07:17:56,0.082,0.0,0.044,0.002
22/09/2022,07:18:56,0.085,0.0,0.045,0.001
22/09/2022,07:19:56,0.086,0.0,0.047,0.002
22/09/2022,07:20:56,0.088,0.0,0.048,0.001
22/09/2022,07:21:56,0.090,0.0,0.049,0.001
22/09/2022,07:22:56,0.091,0.0,0.051,0.002
22/09/2022,07:23:56,0.093,0.0,0.052,0.001
22/09/2022,07:24:56,0.095,0.0,0.054,0.002
22/09/2022,07:25:56,0.097,0.0,0.056,0.002
22/09/2022,07:26:56,0.100,0.0,0.057,0.001
22/09/2022,07:27:56,0.102,0.0,0.059,0.002
22/09/2022,07:28:56,0.105,0.0,0.061,0.002
22/09/2022,07:29:55,0.108,0.0,0.062,0.001
22/09/2022,07:31:04,0.112,0.0,0.065,0.003
22/09/2022,07:31:55,0.112,0.0,0.066,0.001
22/09/2022,07:32:56,0.115,0.0,0.068,0.002
22/09/2022,07:33:56,0.117,0.0,0.07,0.002
22/09/2022,07:34:56,0.119,0.0,0.072,0.002
22/09/2022,07:35:56,0.123,0.0,0.074,0.002
22/09/2022,07:37:04,0.125,0.0,0.076,0.002
22/09/2022,07:37:56,0.127,0.0,0.078,0.002
22/09/2022,07:38:56,0.130,0.0,0.08,0.002
22/09/2022,07:39:56,0.134,0.0,0.082,0.002
22/09/2022,07:40:55,0.138,0.0,0.085,0.003
22/09/2022,07:41:56,0.141,0.0,0.087,0.002
22/09/2022,07:42:56,0.142,0.0,0.089,0.002
22/09/2022,07:44:04,0.146,0.0,0.092,0.003
22/09/2022,07:44:56,0.148,0.0,0.094,0.002
22/09/2022,07:45:56,0.153,0.0,0.097,0.003
22/09/2022,07:46:56,0.156,0.0,0.099,0.002
22/09/2022,07:48:04,0.161,0.0,0.102,0.003
22/09/2022,07:48:55,0.164,0.0,0.105,0.003
22/09/2022,07:49:56,0.169,0.0,0.107,0.002
22/09/2022,07:50:55,0.172,0.0,0.11,0.003
22/09/2022,07:51:56,0.176,0.0,0.113,0.003
22/09/2022,07:52:55,0.178,0.0,0.116,0.003
22/09/2022,07:53:47,0.180,0.0,0.119,0.003
22/09/2022,07:54:56,0.181,0.0,0.122,0.003
22/09/2022,07:55:56,0.186,0.0,0.125,0.003
22/09/2022,07:56:55,0.192,0.0,0.128,0.003
22/09/2022,07:58:04,0.195,0.0,0.132,0.004
22/09/2022,07:58:56,0.198,0.0,0.135,0.003
22/09/2022,07:59:56,0.204,0.0,0.138,0.003
22/09/2022,08:00:56,0.207,0.0,0.142,0.004
22/09/2022,08:01:56,0.210,0.0,0.145,0.003
22/09/2022,08:02:56,0.213,0.0,0.149,0.004
22/09/2022,08:03:56,0.217,0.0,0.152,0.003
22/09/2022,08:04:56,0.221,1.0,0.156,0.004
22/09/2022,08:05:55,0.225,1.0,0.16,0.004
22/09/2022,08:06:56,0.231,1.0,0.163,0.003
22/09/2022,08:08:04,0.236,1.0,0.168,0.005
22/09/2022,08:08:55,0.241,1.0,0.171,0.003
22/09/2022,08:09:56,0.242,1.0,0.175,0.004
22/09/2022,08:11:04,0.247,1.0,0.18,0.005
22/09/2022,08:11:55,0.250,1.0,0.184,0.004
22/09/2022,08:12:56,0.249,1.0,0.188,0.004
22/09/2022,08:13:56,0.254,1.0,0.192,0.004
22/09/2022,08:14:55,0.257,1.0,0.196,0.004
22/09/2022,08:15:56,0.258,1.0,0.2,0.004
22/09/2022,08:16:55,0.255,1.0,0.205,0.005
22/09/2022,08:17:55,0.262,1.0,0.209,0.004
22/09/2022,08:18:56,0.264,1.0,0.213,0.004
22/09/2022,08:19:56,0.266,1.0,0.218,0.005
22/09/2022,08:20:56,0.266,1.0,0.222,0.004
22/09/2022,08:21:56,0.268,1.0,0.227,0.005
22/09/2022,08:22:58,0.272,1.0,0.231,0.004
22/09/2022,08:23:55,0.276,1.0,0.236,0.005
22/09/2022,08:24:56,0.279,1.0,0.24,0.004
22/09/2022,08:25:55,0.284,1.0,0.245,0.005
22/09/2022,08:26:55,0.284,1.0,0.25,0.005
22/09/2022,08:27:56,0.288,1.0,0.255,0.005
22/09/2022,08:28:56,0.294,1.0,0.259,0.004
22/09/2022,08:29:56,0.299,1.0,0.264,0.005
22/09/2022,08:30:55,0.302,1.0,0.269,0.005
22/09/2022,08:31:56,0.310,1.0,0.274,0.005
22/09/2022,08:32:56,0.321,1.0,0.28,0.006
22/09/2022,08:33:56,0.328,1.0,0.285,0.005
22/09/2022,08:34:55,0.339,1.0,0.291,0.006
22/09/2022,08:35:56,0.346,1.0,0.296,0.005
22/09/2022,08:36:55,0.350,1.0,0.302,0.006
22/09/2022,08:37:56,0.356,1.0,0.308,0.006
22/09/2022,08:39:04,0.361,1.0,0.315,0.007
22/09/2022,08:39:47,0.370,1.0,0.319,0.004
22/09/2022,08:40:56,0.375,1.0,0.326,0.007
22/09/2022,08:41:56,0.380,1.0,0.333,0.007
22/09/2022,08:42:55,0.388,1.0,0.339,0.006
22/09/2022,08:43:56,0.396,1.0,0.346,0.007
22/09/2022,08:44:55,0.401,1.0,0.352,0.006
22/09/2022,08:46:04,0.409,1.0,0.36,0.008
22/09/2022,08:46:55,0.408,1.0,0.366,0.006
22/09/2022,08:47:56,0.413,1.0,0.373,0.007
22/09/2022,08:49:05,0.411,1.0,0.381,0.008
22/09/2022,08:49:56,0.400,1.0,0.386,0.005
22/09/2022,08:50:56,0.400,1.0,0.393,0.007
22/09/2022,08:52:12,0.403,1.0,0.401,0.008
22/09/2022,08:53:57,0.414,1.0,0.413,0.012
22/09/2022,08:54:56,0.414,1.0,0.42,0.007
22/09/2022,08:55:56,0.419,1.0,0.427,0.007
22/09/2022,08:56:56,0.403,1.0,0.434,0.007
22/09/2022,08:57:56,0.402,1.0,0.441,0.007
22/09/2022,08:59:04,0.410,1.0,0.448,0.007
22/09/2022,08:59:51,0.419,1.0,0.454,0.006
22/09/2022,09:00:56,0.436,1.0,0.462,0.008
22/09/2022,09:01:56,0.447,1.0,0.469,0.007
22/09/2022,09:02:56,0.455,1.0,0.476,0.007
22/09/2022,09:03:56,0.454,1.0,0.484,0.008
22/09/2022,09:04:56,0.458,1.0,0.492,0.008
22/09/2022,09:05:47,0.463,1.0,0.498,0.006
22/09/2022,09:06:56,0.470,1.0,0.507,0.009
22/09/2022,09:07:56,0.472,1.0,0.515,0.008
22/09/2022,09:08:56,0.501,1.0,0.523,0.008
22/09/2022,09:09:55,0.511,1.0,0.531,0.008
22/09/2022,09:10:56,0.504,1.0,0.54,0.009
22/09/2022,09:11:55,0.501,1.0,0.548,0.008
22/09/2022,09:12:56,0.508,1.0,0.557,0.009
22/09/2022,09:13:56,0.515,1.0,0.565,0.008
22/09/2022,09:14:56,0.516,1.0,0.574,0.009
22/09/2022,09:15:56,0.534,1.0,0.583,0.009
22/09/2022,09:16:55,0.527,1.0,0.591,0.008
22/09/2022,09:17:56,0.518,1.0,0.6,0.009
22/09/2022,09:19:04,0.526,1.0,0.61,0.01
22/09/2022,09:19:55,0.526,1.0,0.618,0.008
22/09/2022,09:20:56,0.528,1.0,0.626,0.008
22/09/2022,09:21:56,0.521,1.0,0.635,0.009
22/09/2022,09:23:04,0.526,1.0,0.645,0.01
22/09/2022,09:23:56,0.545,1.0,0.653,0.008
22/09/2022,09:24:56,0.540,1.0,0.662,0.009
22/09/2022,09:25:56,0.547,1.0,0.671,0.009
22/09/2022,09:27:12,0.527,1.0,0.682,0.011
22/09/2022,09:28:56,0.580,1.0,0.698,0.016
22/09/2022,09:29:56,0.558,1.0,0.708,0.01
22/09/2022,09:30:56,0.547,1.0,0.717,0.009
22/09/2022,09:31:56,0.594,1.0,0.727,0.01
22/09/2022,09:32:56,0.543,1.0,0.736,0.009
22/09/2022,09:33:55,0.559,1.0,0.745,0.009
22/09/2022,09:34:56,0.639,1.0,0.755,0.01
22/09/2022,09:35:56,0.603,1.0,0.766,0.011
22/09/2022,09:36:56,0.549,1.0,0.775,0.009
22/09/2022,09:37:56,0.548,1.0,0.785,0.01
22/09/2022,09:38:55,0.549,1.0,0.794,0.009
22/09/2022,09:39:57,0.617,1.0,0.805,0.011
22/09/2022,09:40:56,0.620,1.0,0.814,0.009
22/09/2022,09:41:56,0.602,1.0,0.824,0.01
22/09/2022,09:42:56,0.561,1.0,0.834,0.01
22/09/2022,09:43:56,0.641,1.0,0.844,0.01
22/09/2022,09:44:56,0.619,1.0,0.854,0.01
22/09/2022,09:45:56,0.622,1.0,0.865,0.011
22/09/2022,09:46:57,0.611,1.0,0.875,0.01
22/09/2022,09:47:55,0.573,1.0,0.885,0.01
22/09/2022,09:48:56,0.673,2.0,0.895,0.01
22/09/2022,09:49:56,0.712,2.0,0.907,0.012
22/09/2022,09:50:56,0.714,2.0,0.919,0.012
22/09/2022,09:51:56,0.665,2.0,0.931,0.012
22/09/2022,09:53:05,0.727,2.0,0.944,0.013
22/09/2022,09:53:56,0.753,2.0,0.954,0.01
22/09/2022,09:54:56,0.755,2.0,0.967,0.013
22/09/2022,09:56:04,0.726,2.0,0.981,0.014
22/09/2022,09:56:56,0.757,2.0,0.991,0.01
22/09/2022,09:57:56,0.767,2.0,1.004,0.013
22/09/2022,09:58:56,0.773,2.0,1.017,0.013
22/09/2022,10:00:13,0.722,2.0,1.032,0.015
22/09/2022,10:01:56,0.747,2.0,1.054,0.022
22/09/2022,10:02:56,0.749,2.0,1.066,0.012
22/09/2022,10:03:58,0.660,2.0,1.079,0.013
22/09/2022,10:04:56,0.728,2.0,1.09,0.011
22/09/2022,10:06:04,0.739,2.0,1.104,0.014
22/09/2022,10:06:55,0.759,2.0,1.115,0.011
22/09/2022,10:08:04,0.670,2.0,1.129,0.014
22/09/2022,10:09:05,0.791,2.0,1.141,0.012
22/09/2022,10:09:54,0.806,2.0,1.152,0.011
22/09/2022,10:10:56,0.809,2.0,1.166,0.014
22/09/2022,10:11:56,0.820,2.0,1.179,0.013
22/09/2022,10:12:56,0.684,2.0,1.192,0.013
22/09/2022,10:13:56,0.770,2.0,1.204,0.012
22/09/2022,10:14:56,0.669,2.0,1.217,0.013